GFSWCAN_sfc_thetae_117.txt.gz
Theta_e
299 298 298 298 298 298 297 297 297 299 300 300 301 301 301 300 298 293 290 291 291 286 287 290 290 285 284 283 280 283 283 283 282 279 279 279 280 281 281 283 282 279 278 277 279 276 274 284 285 280 282 285 283 283
299 299 298 299 298 297 297 298 299 300 301 301 301 300 300 299 299 295 289 291 292 288 287 290 290 291 289 287 286 284 284 285 284 281 281 281 280 282 281 279 286 279 281 279 278 277 283 286 283 285 288 285 284 283
298 298 298 298 298 299 299 299 299 300 300 300 301 301 300 299 298 294 289 289 291 289 288 288 287 291 293 292 293 286 286 288 286 286 284 283 280 284 280 280 282 284 286 280 280 282 282 283 285 284 284 284 285 284
298 298 298 298 296 297 298 299 299 300 300 300 300 300 300 299 298 295 290 291 290 288 284 285 292 290 293 294 293 292 290 289 288 287 284 283 282 285 283 283 282 284 285 281 280 281 282 282 283 283 282 282 281 281
298 297 298 298 298 298 298 298 298 299 300 300 300 299 299 298 297 295 293 293 292 289 283 284 289 291 292 293 292 292 290 288 286 285 284 282 285 285 286 285 281 285 283 281 279 283 283 281 283 284 281 280 280 279
297 298 297 297 298 297 298 298 298 299 299 299 299 297 296 295 291 289 285 291 294 291 286 281 287 290 291 292 291 290 289 287 286 285 284 284 285 286 282 279 284 285 286 287 284 284 283 283 282 282 280 279 279 278
298 297 297 297 298 298 298 298 298 298 298 298 298 299 298 298 295 287 285 290 295 292 285 282 284 289 291 290 289 288 289 287 287 285 284 284 285 287 283 279 284 285 285 285 285 284 281 282 279 280 280 279 278 277
297 297 297 297 297 297 297 298 298 298 298 299 299 298 297 297 295 292 295 296 292 287 286 281 282 287 292 286 285 286 285 286 285 284 284 284 286 286 280 284 284 285 285 285 285 285 283 281 280 279 279 278 276 275
297 297 297 297 297 297 297 298 297 298 297 296 294 293 290 288 289 291 297 294 292 288 281 280 280 279 289 285 285 285 285 281 284 282 283 285 281 279 283 284 284 285 284 281 281 281 280 279 278 278 277 277 276 275
297 297 297 297 297 297 298 297 297 296 294 294 289 283 281 288 295 292 288 283 284 285 284 280 282 282 286 283 282 282 282 281 279 283 285 283 280 281 281 284 285 285 284 282 279 278 278 277 278 277 276 276 275 273
297 297 297 297 297 297 297 297 295 294 292 286 283 282 289 294 288 284 279 279 280 279 281 281 283 283 286 282 281 282 280 280 277 281 281 278 279 280 281 281 282 283 283 282 283 283 282 281 278 276 274 274 273 272
297 297 297 297 297 297 296 294 294 289 287 287 289 292 289 284 281 278 277 280 279 277 280 280 282 286 287 286 282 282 280 279 276 283 280 276 278 280 280 280 280 281 280 280 281 280 279 279 278 276 274 273 272 270
296 297 297 297 297 296 295 296 295 294 290 288 285 282 281 280 273 271 271 275 276 279 280 282 281 285 286 287 283 283 277 276 283 278 277 278 277 279 279 279 278 279 278 278 277 277 276 275 275 273 270 268 267 265
296 297 297 297 296 296 296 295 294 291 286 280 276 273 273 274 275 275 276 277 279 279 280 283 281 283 281 281 277 276 278 281 276 272 276 278 277 277 278 277 276 273 272 273 272 271 270 269 266 266 266 265 266 266
296 296 297 296 296 296 294 293 292 288 282 278 278 274 276 279 281 281 279 282 283 280 282 282 281 281 277 277 278 279 278 273 275 275 278 276 277 276 275 275 273 271 269 268 269 268 266 266 267 266 264 265 266 264
296 295 293 296 295 294 292 290 286 284 281 281 279 277 278 279 281 283 282 283 283 281 282 283 278 275 275 276 275 274 275 272 277 277 277 274 275 274 273 273 272 270 270 268 268 268 267 266 268 269 266 267 265 266
293 290 295 294 294 293 292 285 283 280 278 279 277 278 281 280 279 282 285 284 281 284 278 279 274 274 278 275 274 277 276 278 277 277 276 274 275 273 271 270 268 268 268 268 268 269 269 269 268 270 271 271 269 271
290 293 295 293 290 288 285 283 281 279 275 277 276 277 278 281 283 284 285 285 285 283 282 280 280 276 272 273 275 276 278 277 276 276 274 272 272 271 272 270 269 270 269 268 269 269 270 269 272 273 273 274 274 274
292 292 294 293 288 283 280 281 282 275 276 279 279 280 280 282 284 284 285 285 284 284 283 280 277 277 277 276 277 275 278 278 275 272 270 268 271 271 270 270 269 269 270 270 272 273 273 274 274 275 275 274 274 274
294 293 293 293 290 283 280 279 284 279 276 277 281 280 279 279 280 278 282 285 286 283 280 278 279 278 279 279 278 278 276 275 274 272 271 270 271 271 271 272 272 272 272 272 273 272 274 274 275 275 275 273 273 273
291 290 290 287 284 284 281 280 278 280 280 278 280 280 277 279 278 278 279 283 281 281 280 279 278 277 278 279 279 277 276 277 276 277 275 270 271 273 273 273 273 273 273 273 273 273 271 274 273 273 272 271 269 269
288 290 283 284 281 282 282 282 280 281 280 280 280 280 275 272 273 276 282 279 280 281 280 279 279 280 278 278 277 278 277 276 275 273 272 272 271 272 272 273 273 272 273 273 274 274 274 273 272 271 270 267 266 267
288 285 281 281 274 271 275 283 276 280 273 276 279 275 273 273 277 282 276 281 279 276 277 279 280 281 278 278 278 278 278 276 274 273 273 273 273 274 273 273 274 273 273 273 273 272 272 268 266 267 266 266 266 265
286 278 272 271 273 269 278 276 281 279 278 276 275 273 275 277 279 277 274 276 275 275 277 279 279 277 277 277 275 275 275 275 273 273 274 273 272 272 274 273 273 273 274 272 271 269 267 266 264 265 264 263 262 262
274 270 270 263 274 269 270 272 271 274 271 272 272 272 274 275 270 270 273 274 272 272 273 276 277 277 276 273 273 274 275 275 274 272 272 274 271 271 270 271 270 270 271 269 267 266 263 263 264 263 262 262 263 260
265 266 268 266 270 269 269 269 270 267 272 275 272 273 273 271 270 270 273 275 273 272 272 273 277 277 275 275 274 274 274 275 275 272 271 273 274 273 271 270 269 269 268 270 267 266 264 262 263 262 260 258 255 258
265 266 274 277 276 277 270 270 273 269 268 271 274 272 269 269 267 271 274 275 275 276 277 277 278 278 275 272 271 271 271 272 272 271 270 270 270 271 273 271 270 269 267 267 267 266 264 262 261 260 258 256 255 255
271 272 268 272 275 276 272 269 268 266 269 272 272 269 267 268 270 271 271 272 276 274 273 273 273 274 273 271 270 269 268 268 268 268 269 267 266 265 266 267 267 266 265 265 264 263 263 262 260 258 258 256 253 250
274 272 271 272 268 272 268 269 270 269 271 272 271 269 268 269 268 267 269 271 273 275 271 269 268 268 268 268 269 270 270 271 271 268 267 266 266 265 264 265 264 264 264 264 264 261 260 259 257 256 254 253 249 248
269 274 267 264 266 269 270 271 268 267 269 269 268 267 267 266 265 267 268 269 273 274 272 270 268 268 267 268 266 267 266 267 270 271 268 266 267 264 263 264 263 263 264 264 262 260 259 255 255 252 251 250 251 250
274 273 270 271 272 271 271 269 266 265 266 266 264 268 267 265 265 266 265 265 267 269 269 267 267 268 268 268 268 268 268 266 265 266 267 266 265 264 263 263 262 262 262 260 259 257 254 252 252 251 250 249 247 248
271 270 268 267 267 267 271 271 270 267 264 265 264 262 264 266 266 265 264 265 267 267 266 267 268 268 270 269 267 267 267 265 265 265 265 264 263 261 261 260 259 260 259 257 256 255 254 252 250 250 249 248 247 246
268 269 268 267 265 265 269 270 267 264 262 262 263 261 264 265 265 264 263 264 265 268 266 265 265 265 264 264 263 263 263 263 263 264 262 260 259 259 259 259 259 258 256 255 254 252 251 250 248 248 247 246 246 245

GFSWCAN_sfc_thetae_120.txt.gz
Theta_e
299 298 298 297 296 297 299 298 299 300 300 300 301 301 300 300 299 299 293 296 297 290 290 292 292 288 289 290 285 288 287 287 287 285 284 284 284 286 285 286 284 283 281 281 282 280 276 286 286 282 284 287 287 287
298 298 298 297 296 297 297 298 299 299 300 301 300 300 299 300 298 300 294 295 302 295 291 295 293 294 293 292 290 290 289 289 289 287 287 288 285 287 286 281 288 282 285 283 281 280 285 286 285 288 289 286 286 287
298 298 297 297 297 299 298 298 297 299 300 300 300 300 300 300 300 299 297 300 299 294 293 292 290 295 298 297 299 290 292 291 291 295 291 290 284 290 284 285 285 286 288 284 283 283 284 284 286 288 289 287 288 288
298 297 297 297 298 299 300 300 300 300 300 300 300 300 300 300 299 300 297 299 299 295 288 288 296 292 297 300 298 298 294 295 294 295 291 290 287 291 286 287 286 287 288 284 282 283 284 284 285 286 286 286 285 285
297 297 297 298 298 298 299 299 300 300 300 300 300 300 300 300 300 300 299 299 298 295 287 287 293 295 298 298 296 297 295 294 292 290 290 288 291 290 290 289 285 288 285 284 283 285 285 284 285 285 284 283 284 283
297 297 297 296 297 298 299 299 299 299 298 298 298 297 296 294 296 299 291 299 300 301 293 284 292 292 296 297 295 295 295 293 294 291 290 291 291 291 285 283 286 287 288 289 286 288 286 285 285 285 283 283 283 282
297 296 296 297 295 297 299 299 298 298 299 299 299 299 299 299 299 293 292 297 297 302 294 286 287 292 294 294 294 294 295 294 294 291 291 291 291 293 287 281 286 286 289 289 288 286 282 283 282 284 283 282 281 281
297 297 297 297 297 298 298 298 298 299 299 298 298 298 299 299 298 293 296 296 297 295 294 286 285 288 294 289 289 293 291 293 292 291 291 289 291 291 283 286 288 288 288 288 288 289 287 285 284 282 283 282 280 279
296 297 297 297 297 297 298 298 299 298 296 295 295 297 298 295 293 293 297 296 299 295 287 287 283 282 293 290 292 292 293 287 292 289 289 290 287 283 286 287 287 288 287 286 286 286 285 283 282 282 282 281 279 278
297 297 297 297 297 297 297 297 295 295 295 295 295 292 286 292 295 295 295 292 291 291 291 286 289 284 290 289 289 288 291 286 284 288 291 287 286 287 289 290 290 290 288 287 284 282 283 282 282 281 281 280 279 277
297 297 297 297 297 297 296 295 294 294 294 293 289 286 294 296 295 290 285 285 286 284 288 287 288 285 292 286 286 289 286 287 281 284 285 283 283 285 287 289 291 291 289 288 288 288 287 285 283 280 278 278 277 276
297 297 297 297 297 295 295 295 295 294 292 293 293 295 294 290 287 282 281 283 283 280 285 286 287 288 289 294 288 288 283 285 279 287 284 281 285 286 285 285 288 289 288 287 288 286 285 284 282 280 278 277 276 274
297 297 297 296 296 296 296 295 294 293 293 295 290 287 286 284 279 277 275 278 280 284 286 287 285 290 291 291 286 285 281 281 286 282 281 286 285 285 286 285 284 285 285 284 284 284 282 281 280 278 275 274 272 270
297 297 297 297 296 295 295 294 294 294 293 286 284 278 280 278 280 280 281 282 284 286 288 288 285 288 288 285 285 281 284 285 279 277 279 286 283 284 284 284 282 280 279 280 279 278 276 274 273 273 272 272 271 270
296 296 296 296 295 294 293 293 292 294 289 283 284 277 279 283 284 284 285 285 286 290 289 288 287 289 285 282 285 283 279 277 280 282 286 286 283 282 281 281 279 278 276 276 276 274 272 271 272 271 271 273 273 270
296 296 294 295 294 294 293 293 292 291 288 285 283 281 283 284 283 284 285 284 288 289 290 290 284 283 281 283 280 279 279 278 284 287 285 283 281 281 280 279 278 277 277 276 275 274 273 272 273 273 272 272 271 271
294 292 295 294 294 293 292 291 290 284 283 282 281 284 284 284 282 285 286 287 289 290 285 286 281 279 284 281 279 284 282 286 285 283 283 283 282 280 279 277 275 275 275 275 274 274 274 275 274 274 273 274 274 275
292 294 294 293 292 291 290 289 285 283 280 282 282 282 284 285 286 285 286 289 290 289 289 284 286 281 281 278 281 287 286 282 281 281 282 281 281 279 279 278 275 276 276 275 275 274 274 274 275 277 277 277 277 277
294 294 294 293 291 289 285 285 286 280 281 283 284 284 284 285 287 286 287 289 291 292 291 288 284 284 285 287 288 285 284 283 282 280 279 278 280 278 277 276 276 276 275 275 276 277 277 277 279 279 279 279 279 279
293 293 292 292 293 287 282 282 287 283 280 282 284 283 284 284 286 286 287 288 287 291 287 286 286 288 289 288 289 288 287 284 282 280 279 278 278 277 277 277 278 277 277 277 278 277 278 278 279 279 280 279 278 277
292 292 291 292 289 287 284 282 282 282 282 282 283 285 284 286 286 286 287 289 288 288 287 289 288 286 285 284 286 286 284 284 285 286 283 279 279 280 278 279 278 278 278 278 278 278 277 279 280 279 279 278 277 277
291 290 290 289 285 285 283 286 283 284 282 281 283 284 283 283 284 285 288 287 287 288 289 289 288 284 284 284 284 284 283 282 280 279 279 279 278 278 279 279 278 278 279 279 279 279 279 279 279 278 277 275 274 274
290 290 287 285 281 281 280 286 281 282 279 279 283 280 281 283 285 287 284 286 286 284 285 286 285 286 284 282 282 282 282 282 281 280 279 281 281 281 280 280 280 279 279 279 280 280 279 275 275 275 274 274 274 272
288 283 279 279 280 277 282 279 283 281 282 280 279 276 279 281 284 283 280 284 283 283 284 283 285 283 282 281 282 281 281 281 280 279 280 280 279 279 280 280 280 281 281 279 279 278 276 275 272 273 272 271 270 270
280 277 279 275 279 277 276 277 277 279 276 278 277 278 280 282 279 278 278 281 282 282 281 283 284 284 284 282 281 280 279 281 280 278 279 281 280 279 278 279 278 278 279 278 276 275 273 273 272 271 270 270 268 266
275 275 276 276 277 277 277 275 274 276 278 277 277 280 281 280 275 276 279 280 280 280 280 282 283 282 281 281 280 279 279 281 281 279 278 279 279 279 277 276 275 275 277 279 276 274 272 271 270 268 266 264 262 264
274 274 277 280 280 279 279 279 279 279 276 276 279 278 277 274 274 278 279 279 279 280 280 281 282 283 283 279 278 278 279 279 280 278 278 277 277 279 280 278 277 276 275 276 275 274 271 270 268 267 264 263 262 262
278 277 274 277 277 279 275 277 277 276 279 279 279 276 275 276 277 278 278 279 279 279 278 277 276 280 280 278 277 276 275 274 273 274 274 273 272 273 274 274 273 272 273 273 272 271 270 269 267 266 264 262 258 258
277 279 278 274 275 276 277 278 279 279 278 280 279 279 277 276 277 278 278 277 277 279 279 277 275 276 275 276 276 276 276 277 276 274 274 273 272 270 272 272 271 270 270 268 267 267 266 265 264 262 261 259 257 257
276 280 277 274 273 275 280 280 280 277 276 277 277 276 275 276 276 275 276 277 278 279 279 278 276 277 275 275 273 273 275 276 277 278 276 274 274 270 270 270 270 270 270 269 266 263 262 261 260 259 258 258 258 258
279 279 278 278 277 278 277 276 275 275 276 276 274 276 277 276 275 274 274 274 275 277 276 275 274 276 275 274 275 274 273 272 271 272 274 272 270 270 270 270 270 270 268 266 265 263 262 261 260 258 257 255 253 255
278 277 276 274 275 275 276 276 276 276 274 274 275 272 273 274 274 273 270 271 274 275 273 275 275 274 276 275 274 273 273 271 270 270 270 270 270 269 268 268 268 268 266 264 263 261 260 259 258 257 256 255 254 253
274 275 274 273 272 272 274 274 273 272 271 271 272 271 273 273 272 270 271 270 270 273 273 272 271 271 270 270 270 269 269 269 268 268 267 267 266 267 267 267 266 264 263 262 260 259 258 257 256 255 254 253 252 251

GFSWCAN_sfc_thetae_123.txt.gz
Theta_e
296 298 297 296 298 297 300 301 301 301 302 303 303 303 303 303 303 302 298 305 300 294 294 295 295 292 292 292 286 290 288 289 288 285 285 286 286 287 287 289 287 285 284 284 285 281 279 287 287 283 287 289 289 288
299 298 297 296 298 298 298 300 301 301 301 301 301 301 301 301 302 305 296 301 301 294 292 297 297 297 297 297 293 294 291 290 290 288 289 289 287 289 287 282 290 284 288 286 285 282 286 287 288 290 290 288 288 288
298 297 297 296 298 298 298 300 300 300 300 300 300 301 301 301 303 302 298 301 297 292 292 293 293 298 302 301 303 292 294 295 293 298 294 293 286 290 285 287 287 288 290 285 285 284 284 287 289 290 289 288 289 288
297 297 297 297 297 298 299 299 300 300 300 300 300 300 301 302 303 303 300 303 299 296 288 290 299 296 302 302 301 301 298 299 298 297 293 292 288 293 290 290 289 289 289 285 283 285 286 286 287 288 287 287 287 288
296 297 298 298 297 298 299 299 299 300 300 300 300 301 301 302 302 303 303 303 304 295 289 290 297 299 300 300 298 299 298 296 294 291 292 290 293 291 290 290 286 290 287 285 286 287 287 285 287 288 286 285 285 285
296 296 297 298 298 299 299 299 300 300 300 300 299 299 299 300 303 301 294 303 304 302 294 286 295 295 298 298 297 296 297 296 295 293 292 294 294 293 288 284 288 289 291 291 287 289 287 286 287 287 285 285 285 285
296 297 295 298 299 299 299 299 299 300 300 300 300 300 300 300 301 297 294 299 300 303 295 287 288 294 297 296 296 295 296 295 295 293 292 292 292 293 288 285 288 289 290 290 290 288 284 285 284 287 286 285 285 284
296 295 296 298 298 299 298 298 299 299 299 299 300 300 299 299 299 295 297 300 301 298 296 287 285 289 296 291 290 296 292 294 294 293 293 291 292 293 285 287 289 289 289 289 289 290 287 288 286 285 285 284 282 281
296 295 297 298 298 299 298 297 297 296 297 298 300 300 300 298 294 294 296 299 305 299 290 289 284 282 295 292 292 293 295 289 294 290 291 292 289 285 288 289 288 289 288 288 290 288 286 285 284 284 284 283 282 281
297 297 297 297 297 296 296 296 296 296 297 299 299 294 288 295 295 297 299 295 295 294 294 289 292 286 292 291 289 289 292 287 284 289 292 288 287 290 292 291 291 290 291 291 287 285 285 284 284 284 283 283 282 280
297 297 297 297 296 296 296 297 296 296 298 297 291 290 296 296 298 294 289 289 290 286 290 289 290 287 294 288 287 292 288 288 282 286 286 284 285 288 292 290 291 292 292 291 291 290 289 287 285 284 282 282 281 280
297 297 296 296 296 297 297 298 297 298 296 296 296 298 299 294 291 286 284 286 286 283 288 288 289 291 293 296 289 289 284 287 280 290 285 282 287 290 291 290 290 292 291 290 291 289 289 287 286 283 281 280 279 279
297 297 297 297 297 296 296 295 295 294 294 298 294 288 290 288 282 283 277 282 282 286 289 290 288 291 292 293 289 287 282 282 288 283 282 287 289 289 289 290 290 291 290 290 289 288 287 285 284 282 279 277 275 273
297 297 296 296 296 295 295 294 295 297 297 290 287 280 283 281 283 283 285 285 286 290 292 291 290 290 289 286 287 282 285 286 280 279 281 288 288 287 288 288 287 284 284 284 284 283 280 279 277 276 276 275 273 272
297 296 295 295 295 294 293 294 295 298 294 287 287 279 281 285 286 285 286 287 291 294 292 291 290 290 286 283 286 284 280 279 282 283 286 287 286 286 286 286 283 282 281 281 280 277 276 274 274 274 275 276 275 273
296 295 294 295 294 294 294 296 296 296 292 287 285 283 286 285 284 285 285 285 292 293 294 292 287 285 283 285 282 281 280 280 284 286 285 285 285 284 284 283 282 281 281 280 278 277 276 275 275 275 276 275 274 274
296 293 294 294 294 294 295 295 293 288 286 284 283 286 287 286 284 285 289 289 295 293 287 288 283 281 286 283 281 287 284 285 284 284 285 286 283 283 282 282 280 280 280 279 278 278 277 278 277 276 275 275 276 276
292 294 294 294 295 295 294 292 289 286 282 285 284 284 286 285 286 286 288 292 294 291 291 285 288 282 283 280 283 288 287 284 284 284 284 284 284 283 282 280 280 280 280 279 278 278 278 277 277 278 279 278 279 279
293 293 293 293 293 292 288 288 290 282 283 285 287 287 287 286 288 288 290 293 295 296 293 290 285 285 286 289 288 286 285 286 284 282 281 283 283 282 281 280 280 280 279 278 279 279 279 280 281 282 281 280 281 280
294 293 293 293 295 289 284 285 292 285 282 284 286 285 287 286 288 288 289 289 291 292 288 287 287 288 289 290 291 290 287 287 286 283 281 281 282 281 281 280 281 280 280 280 281 281 280 280 282 282 282 281 280 279
294 293 294 295 292 290 286 285 284 285 286 284 286 286 286 289 287 288 289 293 289 289 287 291 288 289 289 289 291 291 289 289 289 289 286 282 283 283 282 283 282 282 281 281 281 280 280 281 281 281 281 280 280 278
293 293 293 292 288 287 286 287 285 286 284 284 286 287 285 284 285 286 290 288 288 287 289 291 291 289 288 287 288 289 288 287 285 286 285 284 282 281 281 282 282 281 282 282 282 281 281 282 281 281 280 277 277 276
292 292 289 288 284 283 281 288 283 284 280 282 285 282 283 284 285 289 284 287 286 288 289 290 289 290 287 287 286 286 287 287 286 285 284 285 284 284 283 282 283 281 281 281 282 282 281 280 279 279 278 277 276 274
290 285 282 281 283 279 285 282 285 283 283 281 281 278 280 282 285 284 282 285 285 287 287 286 288 287 286 285 286 284 285 287 285 285 285 284 281 281 282 282 282 283 282 282 281 280 279 278 277 277 276 275 275 273
282 279 282 278 283 280 279 279 280 280 278 280 278 279 280 284 280 281 280 283 283 282 283 285 286 287 285 285 285 283 283 285 284 282 283 284 283 281 281 281 281 281 282 280 279 278 277 277 277 275 275 274 271 269
276 278 279 279 280 279 279 276 277 278 280 278 279 282 283 281 277 278 282 281 281 282 282 283 284 285 284 286 284 283 282 285 284 282 282 283 282 281 279 278 276 277 281 282 279 277 276 276 274 272 268 267 267 268
276 277 281 284 283 282 281 282 283 281 278 278 281 279 280 276 277 281 282 282 282 282 282 283 283 284 284 283 282 282 283 283 283 282 282 281 281 282 282 280 279 279 280 280 280 278 276 273 272 270 268 267 266 266
281 281 277 279 280 282 278 279 279 278 281 283 283 278 277 279 280 281 281 281 282 282 281 281 281 284 283 282 281 280 278 278 278 278 278 278 278 278 277 278 278 277 278 278 277 276 274 272 270 269 267 265 262 263
280 282 282 276 278 279 279 280 281 283 283 284 281 281 281 281 281 282 281 282 282 282 281 280 279 280 280 280 280 280 280 280 279 276 276 275 274 274 276 275 275 274 272 271 270 271 271 270 268 266 265 263 262 262
279 282 280 277 276 277 282 283 282 281 282 283 283 281 281 281 280 281 281 281 281 281 281 281 280 281 279 278 277 278 280 280 281 281 279 277 276 274 274 274 273 272 272 270 267 265 265 264 263 263 262 262 263 262
282 280 279 279 279 281 280 280 280 280 280 281 280 280 282 280 279 278 279 278 279 280 280 279 279 280 280 279 278 277 275 276 276 278 277 276 275 274 274 273 273 272 270 268 268 267 266 265 264 262 261 259 258 260
280 279 278 277 278 279 279 279 280 279 279 278 279 278 278 278 277 276 274 276 277 277 277 279 279 278 280 278 278 278 276 275 275 275 275 275 274 273 273 272 271 271 269 268 267 265 264 264 263 261 260 259 258 257
278 279 278 278 277 276 278 278 276 276 276 275 276 276 277 277 275 273 274 274 274 276 277 276 276 277 276 276 275 274 274 274 273 272 272 271 271 271 271 271 270 268 267 266 264 263 262 261 261 259 258 257 256 255

GFSWCAN_sfc_thetae_126.txt.gz
Theta_e
296 296 297 297 297 297 298 299 300 302 303 304 304 303 301 302 303 301 299 305 302 295 298 300 299 295 295 294 288 290 289 290 289 285 283 284 285 288 287 289 286 285 283 283 284 281 278 288 287 283 287 290 290 289
296 296 297 296 296 298 297 298 301 301 302 303 304 304 304 303 303 303 297 303 305 300 294 302 302 304 301 299 293 292 291 289 290 287 288 289 287 291 287 284 292 284 288 285 283 281 286 287 289 291 291 289 288 286
296 295 295 297 297 296 299 300 301 301 301 302 304 306 306 306 303 303 301 303 302 294 293 295 294 299 301 301 304 290 293 295 295 299 295 293 287 290 285 287 288 290 292 286 285 284 284 288 289 290 290 288 288 288
296 297 297 297 296 297 299 300 300 300 301 302 301 302 304 303 304 305 302 305 301 296 288 289 299 296 301 303 303 302 300 300 301 300 294 292 289 294 290 291 289 290 290 286 283 284 285 287 288 288 288 289 288 288
297 297 297 296 296 299 299 300 300 300 301 301 302 302 303 304 304 304 304 304 304 296 288 289 295 298 300 301 300 301 300 298 295 292 293 289 292 291 291 291 287 291 288 285 285 287 287 285 287 288 286 285 286 285
296 296 296 296 298 298 299 299 300 300 300 301 302 302 302 302 303 300 291 303 302 300 291 285 295 295 298 299 298 298 298 298 296 293 293 294 296 293 287 285 289 291 293 293 288 289 286 286 287 287 285 285 286 285
297 296 296 298 298 298 299 299 299 300 300 301 302 302 302 302 301 296 294 300 303 304 293 286 287 294 296 296 296 296 298 296 295 293 291 291 292 292 289 285 288 290 291 290 289 287 284 285 284 287 286 285 286 284
297 297 298 298 299 299 299 299 299 300 300 300 300 300 300 300 301 297 299 301 301 299 295 287 285 289 296 291 289 295 292 294 294 292 292 291 291 292 285 288 289 289 289 288 289 291 288 288 287 286 286 284 282 281
297 298 297 297 297 297 297 297 298 299 300 301 301 301 302 299 294 296 296 300 309 300 290 289 284 282 295 292 293 292 294 289 293 290 290 291 288 285 288 288 287 288 288 287 290 289 288 286 285 284 284 283 281 280
297 296 296 296 296 296 296 297 297 298 298 300 300 295 289 294 294 296 299 296 296 295 295 289 291 285 292 291 290 289 292 287 284 288 291 289 286 291 292 291 291 291 290 290 286 284 285 284 284 284 284 284 282 281
296 296 296 297 298 297 297 297 299 299 301 298 294 292 296 296 298 295 290 289 291 287 291 291 290 288 294 288 288 291 288 288 282 286 285 284 284 289 292 291 292 292 292 291 290 290 289 287 285 284 283 283 281 280
296 297 297 297 297 297 297 298 299 298 297 297 296 299 298 295 294 286 285 287 286 283 289 289 290 292 293 295 289 290 285 287 281 290 285 281 287 290 291 290 290 291 291 290 291 289 289 287 287 284 282 281 280 279
297 297 297 296 296 296 296 296 296 296 296 299 294 288 290 289 283 284 278 282 282 288 290 290 288 291 292 294 289 287 282 282 289 283 281 286 289 290 290 290 289 290 290 289 288 288 287 286 285 283 279 276 275 273
296 296 296 296 296 296 296 296 297 299 298 292 287 280 285 282 283 284 286 286 289 291 291 292 291 289 290 286 286 283 285 286 280 279 281 287 289 289 288 287 286 284 285 284 283 281 278 277 276 275 275 274 272 271
296 296 295 295 296 296 296 296 297 299 296 287 287 279 281 285 286 287 289 291 293 295 293 291 291 289 286 283 286 284 280 278 281 282 284 288 288 287 286 284 283 282 281 280 280 277 275 274 274 274 274 274 274 271
296 295 293 295 296 296 296 298 298 297 293 287 286 284 287 285 284 286 286 288 296 295 296 293 288 284 283 284 282 281 280 280 283 284 285 287 286 285 284 284 283 283 283 281 279 276 275 274 274 275 276 275 273 273
295 292 294 295 295 296 297 296 295 289 287 285 284 287 287 285 284 285 288 291 296 293 287 288 283 282 287 283 281 286 283 283 284 284 285 286 285 284 283 283 281 282 281 280 278 277 276 277 276 276 274 274 275 275
292 294 295 295 296 296 295 295 290 287 283 286 284 284 285 286 285 286 289 294 295 292 291 285 289 283 284 280 283 286 283 283 284 284 285 284 284 283 283 281 281 281 281 279 278 277 278 276 276 277 277 276 277 277
293 294 294 295 295 292 288 289 291 283 284 287 287 288 288 286 288 289 291 294 296 296 294 291 285 284 285 287 285 285 285 285 282 282 283 283 283 282 281 281 281 281 280 279 278 279 279 279 280 281 280 279 279 280
295 294 295 295 296 289 285 286 293 286 283 285 288 286 287 287 288 289 292 293 293 293 289 286 285 286 286 287 288 287 286 285 283 280 280 281 282 282 281 281 281 281 280 280 281 280 280 280 282 282 282 281 281 279
294 294 294 296 292 290 288 286 285 286 287 284 287 287 286 289 289 290 290 293 290 289 286 288 286 288 290 291 292 290 288 289 287 287 282 280 282 282 282 283 282 281 280 280 280 281 280 281 282 282 282 281 280 278
292 294 293 293 288 288 286 288 285 287 285 285 286 287 285 284 285 286 290 289 287 286 288 289 289 288 288 287 289 290 288 288 288 287 285 284 282 282 282 282 282 281 282 282 282 281 282 283 282 281 280 278 278 275
293 292 290 289 285 284 282 289 283 284 281 282 285 282 283 283 285 289 285 287 285 288 289 289 289 289 287 287 288 287 288 288 286 285 285 284 284 284 283 283 284 283 281 282 283 282 282 280 280 280 278 278 275 273
291 286 283 282 283 279 285 282 285 283 283 282 281 279 280 282 286 284 282 284 285 287 286 287 288 286 287 287 285 285 286 287 285 285 285 283 282 282 283 283 283 284 283 283 282 281 280 279 278 278 277 276 276 274
282 280 282 279 284 281 279 280 280 281 278 280 279 279 280 284 281 281 281 281 282 282 283 285 286 286 284 283 284 283 285 286 284 282 284 284 283 282 281 282 282 282 284 282 280 279 278 277 278 276 275 274 272 271
277 279 280 280 280 280 279 277 278 279 280 279 280 282 283 281 278 279 281 281 281 281 282 283 284 284 284 285 283 282 283 286 285 282 283 283 283 282 280 278 277 278 282 282 280 277 276 276 275 271 269 268 268 269
277 278 282 285 283 283 281 282 283 281 279 279 281 279 279 277 278 279 281 281 281 281 283 283 283 285 283 282 282 282 283 284 283 281 281 281 281 283 282 279 278 279 281 281 280 279 276 274 272 271 269 268 267 267
281 282 278 280 281 283 279 280 279 279 281 283 283 278 278 278 278 280 280 281 282 282 282 282 283 284 283 282 281 280 280 280 279 279 279 278 278 277 276 277 278 278 279 279 278 277 276 274 271 269 267 265 264 264
281 283 282 276 279 280 280 280 281 283 284 284 281 280 280 282 281 281 281 281 283 283 281 280 280 281 281 281 281 281 280 280 278 275 275 273 273 274 276 276 275 274 273 272 272 273 272 271 269 267 265 264 264 264
280 284 280 278 277 278 281 282 282 282 283 283 284 282 282 280 280 281 281 281 281 281 282 282 281 281 279 278 278 280 281 281 281 281 278 276 274 275 275 273 272 271 271 269 267 266 266 265 265 264 263 263 263 261
282 281 279 280 279 282 281 281 281 281 281 282 281 281 282 280 278 279 278 278 279 281 281 280 280 282 281 279 278 277 275 278 278 277 277 276 276 275 274 274 273 271 269 268 268 267 266 265 264 263 262 260 259 260
280 279 279 277 279 280 281 279 280 280 281 279 280 280 279 278 278 276 274 276 277 278 279 281 280 280 280 279 278 279 277 277 277 277 276 275 275 274 273 272 272 271 270 268 267 266 265 264 263 261 260 259 258 258
280 280 279 279 279 277 280 279 278 278 278 277 278 279 279 277 274 273 275 276 275 276 276 277 278 278 277 277 276 276 275 275 275 275 274 273 273 272 272 272 270 269 268 266 265 264 263 262 261 260 258 257 257 257

GFSWCAN_sfc_thetae_129.txt.gz
Theta_e
296 296 296 296 297 296 297 298 298 298 299 299 299 300 300 301 302 301 297 300 295 290 292 293 294 290 291 290 284 289 287 287 287 282 281 280 280 283 283 287 284 281 281 280 280 278 275 287 286 282 285 287 285 285
296 296 296 296 296 296 297 297 298 298 298 299 299 300 301 301 302 302 295 300 302 294 290 296 297 298 299 298 290 290 287 287 287 283 284 283 281 283 285 280 291 283 285 282 281 279 285 288 288 289 290 284 283 283
295 296 295 296 296 297 297 297 298 298 298 299 300 301 301 301 302 302 297 299 298 293 292 292 292 296 302 300 299 287 289 292 290 293 289 287 282 287 281 281 285 288 291 281 281 283 284 287 289 289 289 287 286 285
297 296 295 296 297 296 297 297 297 297 298 300 302 302 301 301 302 302 297 300 298 293 286 289 299 295 299 298 298 296 294 296 295 294 289 286 284 290 284 286 285 287 287 283 281 284 285 287 288 288 288 289 287 287
295 295 296 296 295 297 296 296 300 301 302 302 302 302 303 303 302 301 301 300 301 293 285 287 293 296 298 298 298 296 296 294 292 288 286 285 287 287 287 287 284 288 284 279 278 283 282 284 286 287 285 285 286 286
296 295 296 297 296 296 300 300 300 301 302 304 304 304 303 303 302 299 291 300 302 299 289 284 292 293 295 298 297 296 296 294 291 288 287 288 293 288 281 279 288 289 290 289 283 286 285 286 287 286 284 285 285 285
297 297 296 296 298 299 300 300 301 301 301 301 302 303 303 302 300 293 290 298 303 300 289 284 285 293 296 296 294 293 294 292 291 288 286 288 288 289 281 280 288 288 288 286 286 285 283 284 283 286 286 285 286 284
296 296 297 297 297 299 300 300 301 300 301 301 302 302 302 302 301 296 299 302 301 294 292 283 284 288 295 288 287 292 288 289 289 288 287 286 287 287 279 286 287 288 288 287 286 288 285 287 286 285 285 283 281 280
297 297 297 298 298 299 300 300 300 300 301 301 301 301 299 296 292 293 298 301 302 294 285 284 281 280 292 288 288 288 289 282 288 284 285 287 282 279 284 286 286 287 286 287 288 286 286 284 283 282 282 281 279 278
296 296 296 296 297 297 298 299 300 300 301 301 299 291 285 290 297 299 296 290 292 292 292 284 287 283 289 286 285 285 286 282 279 283 286 281 281 288 289 288 288 288 289 289 285 284 283 281 281 280 280 280 279 278
297 297 297 297 298 298 299 299 300 299 301 295 288 287 293 296 296 291 281 283 285 282 287 286 287 285 291 284 282 285 282 282 279 281 280 278 278 282 288 288 288 290 290 288 288 285 284 282 281 280 280 280 279 277
297 297 297 297 297 297 298 298 299 296 293 294 293 296 295 292 286 282 278 282 280 281 285 285 285 287 288 290 283 284 281 281 278 283 278 275 281 286 287 286 287 289 289 289 288 285 283 283 281 280 280 279 277 276
296 296 296 296 297 298 298 298 299 298 298 296 291 286 286 284 277 275 273 278 277 282 286 287 284 286 287 287 281 282 277 276 282 275 274 280 283 287 286 286 286 287 287 286 286 285 284 282 281 279 273 273 273 271
296 296 296 296 297 297 297 298 299 298 295 286 282 276 279 276 280 281 282 282 283 286 287 286 283 283 282 280 281 277 279 281 274 271 278 282 284 283 285 285 284 279 283 282 281 278 276 274 271 270 271 270 270 269
295 295 295 295 297 297 297 299 299 296 289 283 283 276 278 282 284 282 282 285 288 288 285 285 284 284 280 280 281 279 278 273 276 275 282 284 283 282 283 283 280 276 275 274 273 273 271 271 271 268 267 268 269 267
296 295 292 296 297 298 298 297 295 293 287 284 284 279 280 279 283 286 285 286 287 284 285 286 282 278 278 279 278 275 277 274 279 282 284 284 281 282 282 281 281 278 276 274 272 271 271 270 270 269 269 268 265 266
294 290 295 296 297 297 298 294 289 286 284 283 282 285 280 284 284 285 286 285 287 285 280 282 277 279 282 278 278 281 279 280 281 282 284 284 283 282 282 281 280 277 276 274 271 272 272 273 273 272 270 268 272 271
290 292 296 297 296 295 292 291 285 284 281 284 282 283 284 285 285 285 286 284 285 284 283 281 284 280 274 276 275 281 281 282 283 283 283 283 283 282 281 280 281 280 277 273 274 274 274 273 274 273 274 274 275 274
292 293 296 297 294 290 285 286 288 281 282 284 285 285 285 285 285 286 286 287 290 290 285 283 280 278 280 283 282 281 281 281 280 281 282 282 282 281 280 281 280 279 275 275 276 276 275 276 276 276 275 275 274 274
295 295 295 296 295 286 284 283 290 283 280 283 286 284 285 284 283 285 286 285 286 285 283 282 282 283 283 283 285 284 283 282 281 279 279 280 281 280 280 280 279 278 277 277 277 276 276 276 278 278 277 275 275 274
293 292 294 294 289 288 285 283 282 284 284 282 285 284 283 284 283 283 283 287 284 283 282 283 284 284 285 286 286 286 283 282 280 280 279 278 280 280 280 280 278 277 276 276 275 275 274 274 277 278 276 273 271 269
289 294 289 291 284 285 283 285 282 283 283 283 282 285 282 278 278 280 284 283 283 283 285 281 281 281 282 284 285 285 285 285 285 282 280 281 279 279 279 279 276 273 275 274 276 275 274 277 277 276 274 272 269 268
292 291 286 286 278 278 277 285 279 281 277 279 281 279 278 278 281 284 282 283 283 284 285 285 285 284 283 283 284 284 284 283 282 282 281 282 281 281 280 280 279 279 278 277 279 278 278 277 276 274 271 270 267 265
291 283 278 278 279 273 280 277 282 281 280 279 278 276 278 278 281 280 280 281 282 283 284 284 284 281 282 283 280 280 282 283 283 282 282 281 280 279 280 280 280 279 279 280 279 277 276 275 274 273 271 271 269 268
275 275 277 272 279 274 273 274 276 278 273 277 276 275 276 280 276 277 279 279 280 280 281 283 284 284 281 280 280 278 282 283 281 280 281 282 280 280 279 279 278 279 280 277 276 276 275 274 273 270 271 269 268 266
270 274 274 275 276 275 276 272 273 274 275 273 274 279 281 277 273 275 278 279 279 279 280 281 281 282 282 282 280 277 278 281 281 279 280 281 281 278 275 274 272 275 278 278 275 273 272 272 268 266 266 266 265 264
268 271 279 283 281 281 275 277 280 276 273 272 276 278 277 269 272 276 278 279 279 280 281 281 282 282 279 278 278 277 278 279 278 277 277 276 276 278 276 274 272 272 277 276 275 274 271 268 267 266 264 262 261 260
276 278 269 274 275 279 273 272 272 272 274 279 277 272 271 272 274 278 278 279 280 281 280 281 281 281 278 277 276 275 274 275 275 274 274 274 274 274 273 273 274 274 274 275 275 273 271 269 267 264 262 260 258 257
275 279 276 266 270 274 273 273 274 277 279 279 276 273 277 278 279 278 278 279 281 280 278 276 277 280 279 278 279 277 272 271 270 267 266 267 266 269 271 271 270 269 270 270 271 269 268 266 264 262 261 260 259 257
274 280 273 270 267 270 278 280 279 280 278 278 278 277 277 277 278 279 279 279 279 280 281 280 279 278 277 277 276 277 277 277 273 272 269 268 267 270 269 269 268 267 266 264 264 264 266 264 263 261 260 258 257 254
279 279 274 275 271 278 277 280 280 280 279 280 279 277 278 276 277 276 274 275 277 279 279 278 279 280 278 277 277 272 270 273 270 273 274 273 271 270 269 269 267 265 264 264 263 262 262 262 261 259 257 256 254 252
278 277 274 272 275 278 279 278 279 278 279 277 278 279 278 277 274 268 269 271 274 275 277 279 278 274 275 275 276 274 274 274 274 274 273 272 272 271 269 268 268 267 266 265 264 263 262 260 258 256 254 252 251 248
279 278 278 276 277 277 277 277 276 274 275 271 275 275 276 272 268 267 268 272 270 272 272 272 273 272 272 272 272 272 273 274 274 274 272 271 270 270 269 268 267 266 265 264 263 261 260 258 256 254 252 250 247 246

GFSWCAN_sfc_thetae_132.txt.gz
Theta_e
296 296 296 296 296 297 297 297 298 298 299 299 300 300 300 301 301 298 295 297 293 289 290 291 291 287 287 287 283 286 284 285 286 282 282 279 279 281 281 284 282 280 278 278 279 277 275 287 285 281 283 283 283 283
296 296 296 296 296 297 297 297 297 298 298 298 299 299 300 301 301 301 290 296 299 292 290 295 294 294 295 293 289 290 285 285 287 283 283 282 280 282 281 278 290 281 284 282 281 279 284 288 286 287 286 283 282 281
295 296 296 296 296 296 297 297 297 297 298 298 298 299 299 300 301 300 293 295 295 291 290 290 290 295 297 297 300 289 289 290 288 290 287 286 280 284 280 281 286 289 289 281 280 282 284 287 288 287 288 285 284 284
296 296 296 296 296 296 296 296 297 297 297 298 298 298 299 299 300 300 294 296 295 292 284 287 296 293 298 297 299 298 295 294 292 292 287 284 283 290 284 286 283 286 287 282 281 283 284 286 288 288 286 285 284 284
296 296 296 297 296 297 296 297 297 297 297 298 298 298 299 299 300 299 298 297 299 291 285 287 294 296 297 297 297 295 295 291 290 288 286 283 287 287 287 286 282 287 283 279 278 283 282 285 287 288 286 285 285 283
296 297 297 297 297 296 296 297 297 297 298 298 298 298 298 299 299 296 289 297 300 295 289 283 292 293 296 297 295 294 293 293 292 288 286 287 292 288 280 278 286 288 289 287 283 286 282 286 286 287 284 285 285 285
295 295 295 296 296 297 296 296 296 296 296 297 297 298 299 299 297 291 289 294 300 298 289 284 285 292 296 295 293 292 294 293 291 288 286 287 287 288 280 280 286 286 285 285 286 286 283 284 283 285 285 285 286 284
297 296 296 296 297 298 299 300 301 303 302 301 301 301 300 300 299 294 297 301 301 295 293 284 284 287 294 287 286 292 288 289 288 286 287 286 287 285 280 285 286 285 285 285 285 286 285 286 286 285 285 284 280 278
297 296 297 299 299 300 300 300 300 302 303 303 302 302 300 296 292 295 301 302 301 293 285 284 281 280 291 286 287 287 289 283 287 283 284 285 281 280 284 285 285 285 285 285 286 284 285 284 284 283 281 279 278 277
297 297 297 298 298 299 299 299 299 301 300 301 298 292 285 294 302 301 297 292 291 293 290 282 284 281 288 286 285 285 285 282 279 283 285 281 281 287 288 288 287 286 287 287 282 282 283 282 282 279 279 279 279 278
297 297 297 298 298 298 299 299 299 300 299 293 289 288 296 301 296 290 284 284 285 284 286 285 286 284 290 284 283 285 281 281 278 281 280 278 280 282 286 287 287 287 289 288 287 285 284 283 280 279 278 279 278 277
298 298 298 298 298 299 299 299 299 296 292 293 294 296 294 290 285 282 280 282 280 282 284 285 286 288 288 289 283 283 280 280 276 282 277 275 279 284 285 286 285 286 286 285 286 283 282 282 280 279 278 277 276 275
297 297 298 298 298 299 300 300 300 299 297 292 288 283 284 281 277 274 272 277 280 281 284 287 284 286 286 285 280 280 276 276 281 274 275 278 281 285 285 285 284 285 287 284 283 283 281 280 280 279 273 271 271 270
296 296 297 298 298 299 299 299 299 296 292 284 280 276 277 275 280 282 280 282 283 287 287 287 282 283 281 279 276 275 278 280 274 270 276 277 282 282 283 283 282 278 282 284 282 281 278 275 270 270 272 271 270 268
295 295 296 297 298 299 298 298 298 294 287 282 282 275 277 282 283 283 283 284 287 288 286 283 282 283 279 278 279 278 277 273 276 274 278 278 283 282 281 281 279 276 276 274 274 272 270 272 272 268 267 269 270 268
295 293 292 297 298 299 298 296 293 290 286 284 283 278 282 284 284 285 286 286 285 283 284 285 281 277 277 278 277 273 276 273 275 281 282 281 282 282 279 280 278 276 274 272 272 271 271 271 271 270 270 270 269 269
293 288 295 297 297 297 298 291 288 285 283 282 281 284 283 284 284 285 286 285 285 284 278 281 276 278 281 276 277 281 275 280 282 282 282 283 282 280 280 279 278 276 274 271 271 271 269 272 271 271 269 268 270 269
287 290 297 297 295 293 289 289 284 283 281 283 281 283 284 285 285 285 284 285 284 282 282 281 283 279 273 275 277 280 280 281 283 283 283 282 282 281 281 279 278 277 274 271 272 272 272 272 273 272 272 272 273 272
291 293 296 297 292 287 283 285 286 280 281 284 284 284 284 285 285 286 284 284 287 287 283 282 279 280 280 282 280 280 280 280 280 281 281 282 282 281 280 280 279 277 273 272 274 274 274 275 274 274 273 274 272 273
295 294 295 295 293 284 282 282 287 282 279 283 285 284 284 283 282 284 283 284 284 283 282 281 281 282 282 283 282 283 282 282 281 278 278 279 280 280 280 280 278 277 274 275 275 274 275 275 276 275 274 274 273 272
290 290 293 290 286 286 283 281 281 282 283 282 284 283 283 282 281 280 281 283 282 283 281 283 281 282 285 285 285 283 282 282 280 278 279 278 279 280 279 280 278 276 273 273 273 272 273 273 275 275 272 269 268 271
286 293 287 287 282 283 281 283 281 282 282 282 281 283 279 276 275 278 282 280 282 282 283 279 280 283 284 284 284 284 284 283 283 280 280 280 278 278 278 276 275 270 272 270 273 271 273 276 275 274 271 269 271 271
289 288 283 282 276 275 276 282 278 280 275 278 280 278 276 275 279 283 279 281 282 284 282 283 284 283 282 283 283 283 283 281 280 280 280 280 280 279 278 278 275 272 271 272 275 275 275 274 272 271 270 269 269 268
288 280 275 274 276 269 275 274 280 279 277 277 276 273 275 275 280 278 277 277 279 283 283 283 283 281 281 282 279 281 282 282 282 281 282 281 279 279 280 279 279 278 277 277 276 275 274 274 272 271 270 268 267 266
274 273 272 267 273 271 267 268 271 274 269 273 272 271 274 278 273 275 274 275 278 280 281 282 283 283 280 279 279 279 283 283 281 280 280 281 280 279 278 278 277 277 278 276 274 274 273 273 273 271 270 268 266 264
267 269 269 269 269 271 272 268 268 269 270 268 271 278 275 272 271 272 276 276 278 278 279 279 281 281 280 280 279 277 278 281 281 278 278 280 279 274 269 272 271 274 276 276 274 273 272 270 270 269 267 266 265 263
267 266 277 281 279 278 272 273 277 272 270 268 273 270 268 268 269 275 278 278 278 279 280 281 282 281 279 277 276 275 275 276 276 275 276 275 275 274 274 272 271 274 275 275 275 272 269 267 265 264 262 261 260 261
273 274 267 270 270 275 266 266 266 270 269 277 275 271 268 269 272 276 277 279 279 280 280 280 280 279 276 273 272 273 273 273 272 273 273 273 272 271 271 273 274 273 272 273 271 269 268 266 264 261 260 258 256 258
270 273 271 264 265 269 273 270 274 275 278 277 272 268 270 277 277 277 277 278 280 279 277 277 276 277 278 277 277 272 271 272 269 266 262 261 263 267 268 269 269 270 270 270 271 268 266 264 262 260 259 258 256 256
269 274 267 261 264 269 276 275 272 278 278 274 275 274 276 276 276 277 278 278 277 278 279 277 274 276 276 274 271 271 272 268 264 266 266 263 263 264 266 266 265 265 267 267 266 265 266 262 262 260 258 257 255 253
277 270 266 265 271 276 277 278 279 278 279 279 276 276 275 274 274 273 272 273 274 277 278 277 277 278 276 273 271 269 269 271 269 269 270 269 267 266 266 265 264 264 264 263 262 261 260 260 259 258 256 254 252 251
275 267 267 267 269 276 278 277 276 276 276 275 275 277 276 275 268 264 268 269 272 273 274 275 276 271 270 271 271 271 270 270 271 271 270 269 268 267 266 265 265 264 263 262 262 261 259 258 257 256 254 252 250 248
274 275 275 275 273 274 274 274 273 273 272 267 268 269 271 267 265 264 266 267 265 265 267 268 269 269 269 271 272 272 272 272 272 272 271 270 268 268 267 266 265 264 263 262 261 259 258 256 254 253 251 250 248 245